This is the latest recevied weather packets stored in our database for station/object KC5EZZ-2. If no packets are shown the sender has not sent any weather packets the latest 10 day(s).
| Time | Temp. | Humidity | Pressure | Rain* | Wind** | Luminosity | Snow |
|---|---|---|---|---|---|---|---|
| 1777467856 | 18.33° C | - | - | 0 mm | 4.02 m/s, 319° | - | - |
| 1777467553 | 18.89° C | - | - | 0 mm | 4.02 m/s, 343° | - | - |
| 1777467254 | 18.89° C | - | - | 0 mm | 4.02 m/s, 346° | - | - |
| 1777466954 | 18.89° C | - | - | 0 mm | 4.47 m/s, 359° | - | - |
| 1777466353 | 19.44° C | - | - | 0 mm | 3.58 m/s, 336° | - | - |
| 1777466053 | 19.44° C | - | - | 0 mm | 4.02 m/s, 349° | - | - |
| 1777465751 | 19.44° C | - | - | 0 mm | 3.13 m/s, 8° | - | - |
| 1777465451 | 19.44° C | - | - | 0 mm | 4.02 m/s, 346° | - | - |
| 1777465152 | 19.44° C | - | - | 0 mm | 2.68 m/s, 322° | - | - |
| 1777464849 | 19.44° C | - | - | 0 mm | 3.13 m/s, 319° | - | - |
| 1777464550 | 19.44° C | - | - | 0 mm | 2.68 m/s, 23° | - | - |
| 1777464251 | 19.44° C | - | - | 0 mm | 2.68 m/s, 1° | - | - |
| 1777463948 | 19.44° C | - | - | 0 mm | 3.58 m/s, 41° | - | - |
| 1777463649 | 19.44° C | - | - | 0 mm | 3.58 m/s, 48° | - | - |
| 1777463047 | 20° C | - | - | 0 mm | 3.13 m/s, 7° | - | - |
| 1777462748 | 19.44° C | - | - | 0 mm | 3.58 m/s, 8° | - | - |
| 1777462448 | 19.44° C | - | - | 0 mm | 2.68 m/s, 7° | - | - |
| 1777462146 | 19.44° C | - | - | 0 mm | 3.13 m/s, 41° | - | - |
| 1777461846 | 20° C | - | - | 0 mm | 4.02 m/s, 35° | - | - |
| 1777461547 | 20° C | - | - | 0 mm | 3.58 m/s, 10° | - | - |
| 1777461245 | 20° C | - | - | 0 mm | 3.58 m/s, 14° | - | - |
| 1777460945 | 20° C | - | - | 0 mm | 3.58 m/s, 10° | - | - |
| 1777460646 | 20° C | - | - | 0 mm | 3.58 m/s, 35° | - | - |
| 1777460343 | 20° C | - | - | 0 mm | 3.58 m/s, 41° | - | - |
| 1777460044 | 19.44° C | - | - | 0 mm | 3.58 m/s, 4° | - | - |
* Rain latest hour (hover to see other rain measurements)
** Current wind speed in m/s (hover to see current wind gust speed)